Location: Nianha
(10.8000°N, 4.6333°W)
Time: 22:15:33
(UTC+00:00)

Cosmos 1898 Rocket - Pass Details

Date: 14 November 2019
Orbit: 753 x 784 km, 74.0° (Epoch: 19 January)

Event Time Altitude Azimuth Distance (km) Brightness Sun altitude
Rises 05:16:11 0° 217° (SW) 3,197 6.5 -14.3°
Reaches altitude 10° 05:18:54 10° 230° (SW) 2,275 5.6 -13.7°
Maximum altitude 05:23:08 26° 285° (WNW) 1,471 4.4 -12.7°
Drops below altitude 10° 05:27:23 10° 341° (NNW) 2,286 5.6 -11.7°
Sets 05:30:08 0° 354° (N) 3,217 6.5 -11.0°
